Weather History for North Platte, NE

Change the Weather History Date:

Wednesday, January 4, 2012

  Actual Average Record
Temperature  
Mean Temperature 37 °F 24 °F  
Max Temperature 57 °F 38 °F 65 °F (1989)
Min Temperature 17 °F 11 °F -23 °F (1974)
Degree Days  
Heating Degree Days 28 41  
Month to date heating degree days 133 164  
Since 1 July heating degree days 2699 2944  
Cooling Degree Days 0 0  
Month to date cooling degree days 0 0  
Year to date cooling degree days 0 0  
Moisture  
Dew Point 21 °F    
Average Humidity 59    
Maximum Humidity 92    
Minimum Humidity 25    
Precipitation  
Precipitation 0.00 in 0.01 in 0.40 in (1949)
Month to date precipitation 0.00 0.05  
Year to date precipitation 0.00 0.05  
Snow  
Snow 0.00 in 0.10 in 5.60 in (1949)
Month to date snowfall 0.0 0.6  
Since 1 July snowfall 4.5 11.4  
Snow Depth 0.00 in    
Sea Level Pressure  
Sea Level Pressure 30.31 in    
Wind  
Wind Speed 8 mph (WNW)    
Max Wind Speed 22 mph    
Max Gust Speed 26 mph    
Visibility 10 miles    
Events      
T = Trace of Precipitation, MM = Missing Value Source: NWS Daily Summary

Daily Weather History Graph

Daily Weather History Graph

Search for Another Location

Airport:

Trip Planner

Search our weather history database for the weather conditions in past years. The results will help you decide how hot, cold, wet, or windy it might be!

Date:

Astronomy

Jan. 04, 2012 Rise Set
Actual Time 8:08 AM CST 5:27 PM CST
Civil Twilight 7:37 AM CST 5:58 PM CST
Nautical Twilight 7:02 AM CST 6:32 PM CST
Astronomical Twilight 6:29 AM CST 7:05 PM CST
Moon 1:51 PM CST (1/4) 3:57 AM CST (1/4)
Length of Visible Light 10h 20m
Length of Day
9h 18m
Waxing Gibbous, 81% of the Moon is Illuminated
Jan 4
Waxing Gibbous
Jan 9
Full
Jan 16
Last Quarter
Jan 23
New
Jan 30
First Quarter

Hourly Weather History & Observations

Time (CST) Temp. Windchill Dew Point Humidity Pressure Visibility Wind Dir Wind Speed Gust Speed Precip Events Conditions
12:53 AM 25.0 °F 17.1 °F 21.0 °F 85% 30.30 in 10.0 mi NNW 6.9 mph - N/A   Clear
1:53 AM 24.1 °F 13.7 °F 19.0 °F 81% 30.31 in 10.0 mi NW 10.4 mph - N/A   Clear
2:53 AM 27.0 °F 20.5 °F 21.9 °F 81% 30.32 in 10.0 mi WNW 5.8 mph - N/A   Clear
3:53 AM 26.1 °F 18.4 °F 21.9 °F 84% 30.33 in 10.0 mi WSW 6.9 mph - N/A   Clear
4:53 AM 25.0 °F 17.1 °F 19.9 °F 81% 30.38 in 10.0 mi West 6.9 mph - N/A   Clear
5:53 AM 23.0 °F 13.9 °F 19.0 °F 85% 30.40 in 10.0 mi West 8.1 mph - N/A   Clear
6:53 AM 19.0 °F 10.0 °F 16.0 °F 88% 30.43 in 10.0 mi NW 6.9 mph - N/A   Clear
7:53 AM 17.1 °F 7.6 °F 15.1 °F 92% 30.43 in 10.0 mi NW 6.9 mph - N/A   Clear
8:53 AM 21.9 °F 14.5 °F 19.0 °F 89% 30.39 in 10.0 mi NW 5.8 mph - N/A   Clear
9:53 AM 32.0 °F 24.2 °F 26.1 °F 79% 30.40 in 10.0 mi West 9.2 mph - N/A   Clear
10:53 AM 39.0 °F 32.3 °F 26.1 °F 60% 30.40 in 10.0 mi West 10.4 mph - N/A   Clear
11:53 AM 46.0 °F 39.9 °F 24.1 °F 42% 30.36 in 10.0 mi West 13.8 mph - N/A   Clear
12:53 PM 51.1 °F - 25.0 °F 36% 30.30 in 10.0 mi West 13.8 mph - N/A   Clear
1:53 PM 54.0 °F - 23.0 °F 30% 30.25 in 10.0 mi West 18.4 mph - N/A   Clear
2:53 PM 55.9 °F - 23.0 °F 28% 30.22 in 10.0 mi West 12.7 mph - N/A   Clear
3:53 PM 57.0 °F - 23.0 °F 27% 30.21 in 10.0 mi West 12.7 mph - N/A   Clear
4:53 PM 50.0 °F - 19.9 °F 31% 30.23 in 10.0 mi West 6.9 mph - N/A   Clear
5:53 PM 36.0 °F - 19.0 °F 50% 30.26 in 10.0 mi Calm Calm - N/A   Clear
6:53 PM 30.9 °F 26.2 °F 19.0 °F 61% 30.28 in 10.0 mi NW 4.6 mph - N/A   Clear
7:53 PM 32.0 °F 26.4 °F 19.9 °F 61% 30.29 in 10.0 mi West 5.8 mph - N/A   Clear
8:53 PM 26.6 °F 19.1 °F 19.4 °F 74% 30.19 in 10.0 mi NW 6.9 mph - N/A   Clear
9:53 PM 28.0 °F 22.8 °F 19.9 °F 72% 30.27 in 10.0 mi NNW 4.6 mph - N/A   Clear
10:53 PM 26.1 °F 18.4 °F 19.9 °F 78% 30.26 in 10.0 mi NW 6.9 mph - N/A   Clear
11:53 PM 27.0 °F 18.7 °F 19.9 °F 75% 30.22 in 10.0 mi NW 8.1 mph - N/A   Clear